Location: Sternwarte_Laufen
(47.9344°N, 12.9346°E)
Time: 03:09:11
(UTC+02:00)

ISS - Pass Details

Date: 13 July 2025
Orbit: 413 x 417 km, 51.6° (Epoch: 12 July)

Event Time Altitude Azimuth Distance (km) Brightness Sun altitude
Rises 00:22:24 0° 287° (WNW) 2,355 0.5 -19.3°
Reaches altitude 10° 00:24:32 10° 294° (WNW) 1,492 -0.5 -19.4°
Maximum altitude 00:27:48 47° 9° (N) 563 -2.8 -19.5°
Enters shadow 00:30:33 13° 83° (E) 1,303 -1.3 -19.6°
